Time,TemperatureF,DewpointF,PressureIn,WindDirection,WindDirectionDegrees,WindSpeedMPH,WindSpeedGustMPH,Humidity,HourlyPrecipIn,Conditions,Clouds,dailyrainin,SoftwareType,DateUTC
2013-01-02 00:07:00,12.3,0.0,30.42,East,96,3.0,9.0,58,0.00,,,0.00,weatherlink.com 1.10,2013-01-02 07:07:00,
2013-01-02 00:22:00,12.3,0.0,30.41,West,262,5.0,10.0,57,0.00,,,0.00,weatherlink.com 1.10,2013-01-02 07:22:00,
2013-01-02 00:37:00,12.6,-1.0,30.42,WNW,290,4.0,18.0,54,0.00,,,0.00,weatherlink.com 1.10,2013-01-02 07:37:00,
2013-01-02 00:52:00,12.3,-1.0,30.42,NW,320,2.0,9.0,56,0.00,,,0.00,weatherlink.com 1.10,2013-01-02 07:52:00,
2013-01-02 01:07:00,12.0,-1.0,30.42,WNW,295,1.0,15.0,57,0.00,,,0.00,weatherlink.com 1.10,2013-01-02 08:07:00,
2013-01-02 01:22:00,11.8,-1.0,30.42,WNW,294,5.0,8.0,58,0.00,,,0.00,weatherlink.com 1.10,2013-01-02 08:22:00,
2013-01-02 01:37:00,11.6,-1.0,30.41,WNW,283,1.0,11.0,58,0.00,,,0.00,weatherlink.com 1.10,2013-01-02 08:37:00,
2013-01-02 01:52:00,11.9,-1.0,30.41,NW,311,0.0,11.0,56,0.00,,,0.00,weatherlink.com 1.10,2013-01-02 08:52:00,
2013-01-02 02:08:00,11.4,0.0,30.42,NNE,25,2.0,6.0,61,0.00,,,0.00,weatherlink.com 1.10,2013-01-02 09:08:00,
2013-01-02 02:23:00,11.1,0.0,30.41,WNW,302,1.0,10.0,62,0.00,,,0.00,weatherlink.com 1.10,2013-01-02 09:23:00,
2013-01-02 02:38:00,11.1,0.0,30.42,West,264,3.0,12.0,60,0.00,,,0.00,weatherlink.com 1.10,2013-01-02 09:38:00,
2013-01-02 02:53:00,11.3,-1.0,30.41,West,278,3.0,9.0,59,0.00,,,0.00,weatherlink.com 1.10,2013-01-02 09:53:00,
2013-01-02 03:08:00,11.2,-1.0,30.41,West,272,5.0,10.0,59,0.00,,,0.00,weatherlink.com 1.10,2013-01-02 10:08:00,
2013-01-02 03:23:00,11.1,0.0,30.41,WNW,295,5.0,6.0,60,0.00,,,0.00,weatherlink.com 1.10,2013-01-02 10:23:00,
2013-01-02 03:38:00,10.7,0.0,30.41,WNW,290,2.0,5.0,63,0.00,,,0.00,weatherlink.com 1.10,2013-01-02 10:38:00,
2013-01-02 03:53:00,10.4,0.0,30.40,WNW,285,3.0,5.0,62,0.00,,,0.00,weatherlink.com 1.10,2013-01-02 10:53:00,
2013-01-02 04:08:00,10.2,0.0,30.40,NW,307,0.0,4.0,63,0.00,,,0.00,weatherlink.com 1.10,2013-01-02 11:08:00,
2013-01-02 04:23:00,10.0,-1.0,30.39,SSE,166,0.0,6.0,62,0.00,,,0.00,weatherlink.com 1.10,2013-01-02 11:23:00,
2013-01-02 04:38:00,10.3,-1.0,30.40,NW,304,6.0,7.0,61,0.00,,,0.00,weatherlink.com 1.10,2013-01-02 11:38:00,
2013-01-02 04:53:00,9.9,-1.0,30.41,SSE,147,0.0,9.0,62,0.00,,,0.00,weatherlink.com 1.10,2013-01-02 11:53:00,
2013-01-02 05:08:00,9.0,-1.0,30.41,SE,124,0.0,2.0,64,0.00,,,0.00,weatherlink.com 1.10,2013-01-02 12:08:00,
2013-01-02 05:24:00,8.2,-1.0,30.41,ESE,107,0.0,1.0,67,0.00,,,0.00,weatherlink.com 1.10,2013-01-02 12:24:00,
2013-01-02 05:39:00,8.8,-1.0,30.41,WNW,285,1.0,5.0,66,0.00,,,0.00,weatherlink.com 1.10,2013-01-02 12:39:00,
2013-01-02 05:54:00,10.1,0.0,30.41,NW,309,0.0,6.0,63,0.00,,,0.00,weatherlink.com 1.10,2013-01-02 12:54:00,
2013-01-02 06:09:00,10.1,0.0,30.41,NNW,335,2.0,7.0,64,0.00,,,0.00,weatherlink.com 1.10,2013-01-02 13:09:00,
2013-01-02 06:24:00,10.4,0.0,30.41,West,273,2.0,7.0,63,0.00,,,0.00,weatherlink.com 1.10,2013-01-02 13:24:00,
2013-01-02 06:39:00,10.6,-1.0,30.41,NW,304,4.0,5.0,61,0.00,,,0.00,weatherlink.com 1.10,2013-01-02 13:39:00,
2013-01-02 06:54:00,10.8,0.0,30.42,ESE,117,0.0,5.0,61,0.00,,,0.00,weatherlink.com 1.10,2013-01-02 13:54:00,
2013-01-02 07:09:00,11.3,0.0,30.42,West,276,0.0,6.0,61,0.00,,,0.00,weatherlink.com 1.10,2013-01-02 14:09:00,
2013-01-02 07:24:00,11.3,1.0,30.43,SW,236,0.0,8.0,64,0.00,,,0.00,weatherlink.com 1.10,2013-01-02 14:24:00,
2013-01-02 07:39:00,10.9,2.0,30.44,WNW,288,1.0,5.0,68,0.00,,,0.00,weatherlink.com 1.10,2013-01-02 14:39:00,
2013-01-02 07:54:00,11.3,3.0,30.43,West,273,0.0,4.0,68,0.00,,,0.00,weatherlink.com 1.10,2013-01-02 14:54:00,
2013-01-02 08:09:00,11.7,3.0,30.43,WNW,285,1.0,6.0,68,0.00,,,0.00,weatherlink.com 1.10,2013-01-02 15:09:00,
2013-01-02 08:24:00,11.9,3.0,30.44,West,273,1.0,8.0,67,0.00,,,0.00,weatherlink.com 1.10,2013-01-02 15:24:00,
2013-01-02 08:39:00,12.1,3.0,30.43,WNW,287,2.0,8.0,67,0.00,,,0.00,weatherlink.com 1.10,2013-01-02 15:39:00,
2013-01-02 08:54:00,12.4,3.0,30.43,WNW,300,3.0,13.0,65,0.00,,,0.00,weatherlink.com 1.10,2013-01-02 15:54:00,
2013-01-02 09:09:00,12.9,2.0,30.43,West,277,5.0,14.0,62,0.00,,,0.00,weatherlink.com 1.10,2013-01-02 16:09:00,
2013-01-02 09:25:00,13.4,1.0,30.43,West,270,7.0,14.0,59,0.00,,,0.00,weatherlink.com 1.10,2013-01-02 16:25:00,
2013-01-02 09:40:00,13.6,2.0,30.42,West,276,4.0,14.0,59,0.00,,,0.00,weatherlink.com 1.10,2013-01-02 16:40:00,
2013-01-02 09:55:00,13.7,1.0,30.43,WSW,258,1.0,12.0,58,0.00,,,0.00,weatherlink.com 1.10,2013-01-02 16:55:00,
2013-01-02 10:10:00,13.9,1.0,30.42,WNW,301,11.0,11.0,57,0.00,,,0.00,weatherlink.com 1.10,2013-01-02 17:10:00,
2013-01-02 10:25:00,14.1,1.0,30.42,WSW,243,4.0,11.0,56,0.00,,,0.00,weatherlink.com 1.10,2013-01-02 17:25:00,
2013-01-02 10:40:00,14.5,1.0,30.42,WNW,293,7.0,11.0,55,0.00,,,0.00,weatherlink.com 1.10,2013-01-02 17:40:00,
2013-01-02 10:55:00,14.7,0.0,30.42,West,267,2.0,14.0,53,0.00,,,0.00,weatherlink.com 1.10,2013-01-02 17:55:00,
2013-01-02 11:10:00,14.7,0.0,30.41,SSW,205,4.0,14.0,53,0.00,,,0.00,weatherlink.com 1.10,2013-01-02 18:10:00,
2013-01-02 11:25:00,14.7,-1.0,30.41,WNW,290,4.0,15.0,51,0.00,,,0.00,weatherlink.com 1.10,2013-01-02 18:25:00,
2013-01-02 11:40:00,14.6,1.0,30.41,West,273,6.0,12.0,55,0.00,,,0.00,weatherlink.com 1.10,2013-01-02 18:40:00,
2013-01-02 11:55:00,14.9,1.0,30.41,WSW,253,7.0,13.0,55,0.00,,,0.00,weatherlink.com 1.10,2013-01-02 18:55:00,
2013-01-02 12:10:00,15.1,2.0,30.42,West,276,4.0,11.0,57,0.00,,,0.00,weatherlink.com 1.10,2013-01-02 19:10:00,
2013-01-02 12:25:00,15.2,2.0,30.40,WSW,238,2.0,11.0,57,0.00,,,0.00,weatherlink.com 1.10,2013-01-02 19:25:00,
2013-01-02 12:41:00,15.5,2.0,30.39,WNW,295,2.0,14.0,56,0.00,,,0.00,weatherlink.com 1.10,2013-01-02 19:41:00,
2013-01-02 12:56:00,15.3,3.0,30.40,WNW,297,5.0,13.0,58,0.00,,,0.00,weatherlink.com 1.10,2013-01-02 19:56:00,
2013-01-02 13:11:00,15.1,3.0,30.40,WNW,290,4.0,9.0,59,0.00,,,0.00,weatherlink.com 1.10,2013-01-02 20:11:00,
2013-01-02 13:26:00,15.2,2.0,30.40,WNW,300,0.0,10.0,57,0.00,,,0.00,weatherlink.com 1.10,2013-01-02 20:26:00,
2013-01-02 13:41:00,15.4,3.0,30.40,WNW,290,4.0,8.0,57,0.00,,,0.00,weatherlink.com 1.10,2013-01-02 20:41:00,
2013-01-02 13:56:00,15.5,1.0,30.40,WSW,244,0.0,7.0,54,0.00,,,0.00,weatherlink.com 1.10,2013-01-02 20:56:00,
2013-01-02 14:11:00,15.2,2.0,30.40,East,99,0.0,8.0,57,0.00,,,0.00,weatherlink.com 1.10,2013-01-02 21:11:00,
2013-01-02 14:26:00,14.9,2.0,30.39,WNW,297,5.0,10.0,56,0.00,,,0.00,weatherlink.com 1.10,2013-01-02 21:26:00,
2013-01-02 14:41:00,14.9,1.0,30.38,SW,232,0.0,12.0,55,0.00,,,0.00,weatherlink.com 1.10,2013-01-02 21:41:00,
2013-01-02 14:56:00,15.2,-1.0,30.39,West,276,4.0,12.0,49,0.00,,,0.00,weatherlink.com 1.10,2013-01-02 21:56:00,
2013-01-02 15:11:00,15.2,0.0,30.39,WSW,255,0.0,11.0,52,0.00,,,0.00,weatherlink.com 1.10,2013-01-02 22:11:00,
2013-01-02 15:26:00,14.5,1.0,30.39,East,99,1.0,3.0,56,0.00,,,0.00,weatherlink.com 1.10,2013-01-02 22:26:00,
2013-01-02 15:41:00,14.0,2.0,30.39,WSW,257,3.0,9.0,58,0.00,,,0.00,weatherlink.com 1.10,2013-01-02 22:41:00,
2013-01-02 15:56:00,13.5,2.0,30.40,WNW,288,5.0,9.0,59,0.00,,,0.00,weatherlink.com 1.10,2013-01-02 22:56:00,
2013-01-02 16:12:00,13.4,1.0,30.41,WNW,294,3.0,7.0,58,0.00,,,0.00,weatherlink.com 1.10,2013-01-02 23:12:00,
2013-01-02 16:27:00,13.2,1.0,30.43,WNW,302,2.0,10.0,58,0.00,,,0.00,weatherlink.com 1.10,2013-01-02 23:27:00,
2013-01-02 16:42:00,13.0,0.0,30.44,NE,46,1.0,8.0,57,0.00,,,0.00,weatherlink.com 1.10,2013-01-02 23:42:00,
2013-01-02 16:57:00,12.4,0.0,30.44,NW,307,3.0,5.0,57,0.00,,,0.00,weatherlink.com 1.10,2013-01-02 23:57:00,
2013-01-02 17:12:00,12.0,0.0,30.45,SW,219,0.0,4.0,58,0.00,,,0.00,weatherlink.com 1.10,2013-01-03 00:12:00,
2013-01-02 17:27:00,11.5,1.0,30.45,SSE,150,0.0,3.0,63,0.00,,,0.00,weatherlink.com 1.10,2013-01-03 00:27:00,
2013-01-02 17:42:00,11.1,-1.0,30.46,West,269,1.0,7.0,58,0.00,,,0.00,weatherlink.com 1.10,2013-01-03 00:42:00,
2013-01-02 17:57:00,10.8,0.0,30.47,NE,42,1.0,6.0,62,0.00,,,0.00,weatherlink.com 1.10,2013-01-03 00:57:00,
2013-01-02 18:12:00,11.1,0.0,30.47,West,269,0.0,3.0,62,0.00,,,0.00,weatherlink.com 1.10,2013-01-03 01:12:00,
2013-01-02 18:27:00,10.5,-1.0,30.46,West,264,5.0,8.0,61,0.00,,,0.00,weatherlink.com 1.10,2013-01-03 01:27:00,
2013-01-02 18:42:00,10.9,0.0,30.46,SW,229,6.0,12.0,62,0.00,,,0.00,weatherlink.com 1.10,2013-01-03 01:42:00,
2013-01-02 18:57:00,11.3,0.0,30.48,WNW,298,4.0,8.0,60,0.00,,,0.00,weatherlink.com 1.10,2013-01-03 01:57:00,
2013-01-02 19:12:00,11.3,-1.0,30.48,NW,304,1.0,5.0,59,0.00,,,0.00,weatherlink.com 1.10,2013-01-03 02:12:00,
2013-01-02 19:28:00,10.9,-1.0,30.48,West,265,0.0,9.0,58,0.00,,,0.00,weatherlink.com 1.10,2013-01-03 02:28:00,
2013-01-02 19:43:00,10.3,-2.0,30.48,West,263,3.0,5.0,59,0.00,,,0.00,weatherlink.com 1.10,2013-01-03 02:43:00,
2013-01-02 19:58:00,10.4,-2.0,30.48,West,278,1.0,10.0,59,0.00,,,0.00,weatherlink.com 1.10,2013-01-03 02:58:00,
2013-01-02 20:13:00,10.1,-2.0,30.48,West,274,0.0,7.0,58,0.00,,,0.00,weatherlink.com 1.10,2013-01-03 03:13:00,
2013-01-02 20:28:00,9.6,-2.0,30.49,West,269,2.0,5.0,59,0.00,,,0.00,weatherlink.com 1.10,2013-01-03 03:28:00,
2013-01-02 20:43:00,8.9,-2.0,30.49,WSW,257,2.0,4.0,62,0.00,,,0.00,weatherlink.com 1.10,2013-01-03 03:43:00,
2013-01-02 20:58:00,8.4,-3.0,30.50,East,94,0.0,4.0,61,0.00,,,0.00,weatherlink.com 1.10,2013-01-03 03:58:00,
2013-01-02 21:13:00,7.1,-4.0,30.50,WNW,291,0.0,1.0,60,0.00,,,0.00,weatherlink.com 1.10,2013-01-03 04:13:00,
2013-01-02 21:28:00,5.2,-4.0,30.51,SW,226,0.0,1.0,67,0.00,,,0.00,weatherlink.com 1.10,2013-01-03 04:28:00,
2013-01-02 21:43:00,4.1,-4.0,30.51,SW,233,0.0,0.0,68,0.00,,,0.00,weatherlink.com 1.10,2013-01-03 04:43:00,
2013-01-02 21:58:00,2.5,-5.0,30.52,SW,234,0.0,0.0,71,0.00,,,0.00,weatherlink.com 1.10,2013-01-03 04:58:00,
2013-01-02 22:14:00,1.3,-5.0,30.52,SW,233,0.0,0.0,76,0.00,,,0.00,weatherlink.com 1.10,2013-01-03 05:14:00,
2013-01-02 22:28:00,1.2,-5.0,30.52,SSW,198,0.0,0.0,76,0.00,,,0.00,weatherlink.com 1.10,2013-01-03 05:28:00,
2013-01-02 22:44:00,3.5,-4.0,30.53,West,281,0.0,3.0,71,0.00,,,0.00,weatherlink.com 1.10,2013-01-03 05:44:00,
2013-01-02 22:59:00,2.8,-5.0,30.53,SW,227,0.0,1.0,70,0.00,,,0.00,weatherlink.com 1.10,2013-01-03 05:59:00,
2013-01-02 23:14:00,2.6,-5.0,30.54,East,94,0.0,2.0,71,0.00,,,0.00,weatherlink.com 1.10,2013-01-03 06:14:00,
2013-01-02 23:29:00,4.4,-4.0,30.54,ESE,113,0.0,2.0,67,0.00,,,0.00,weatherlink.com 1.10,2013-01-03 06:29:00,
2013-01-02 23:44:00,3.8,-5.0,30.55,East,95,0.0,0.0,67,0.00,,,0.00,weatherlink.com 1.10,2013-01-03 06:44:00,
2013-01-02 23:59:00,2.8,-5.0,30.55,NW,318,0.0,0.0,70,0.00,,,0.00,weatherlink.com 1.10,2013-01-03 06:59:00,